Location: Humble ISD Astronomical Observatory
(29.9680°N, 95.2620°W)
Time: 07:26:29
(UTC-05:00)

Tiangong 2 - Pass Details

Date: 28 March 2019
Orbit: 378 x 390 km, 42.8° (Epoch: 25 April)

Event Time Altitude Azimuth Distance (km) Brightness Sun altitude
Rises 21:12:32 0° 240° (WSW) 2,231 5.6 -21.1°
Reaches altitude 10° 21:14:36 10° 242° (WSW) 1,380 4.5 -21.5°
Enters shadow 21:16:52 43° 257° (WSW) 536 2.1 -22.0°
